This is the latest recevied weather packets stored in our database for station/object DN9CHO-13. If no packets are shown the sender has not sent any weather packets the latest 10 day(s).
| Time | Temp. | Humidity | Pressure | Rain* | Wind** | Luminosity | Snow |
|---|---|---|---|---|---|---|---|
| 1787936722 | 22.22° C | 60% | 1011.7 hPa | 0 mm | - | 1 W/m² | - |
| 1787936118 | 22.22° C | 60% | 1011.7 hPa | 0 mm | - | 2 W/m² | - |
| 1787935534 | 22.78° C | 57% | 1011.6 hPa | 0 mm | - | 1 W/m² | - |
| 1787934931 | 22.78° C | 56% | 1011.5 hPa | 0 mm | - | 5 W/m² | - |
| 1787934327 | 23.33° C | 56% | 1011.5 hPa | 0 mm | - | 6 W/m² | - |
| 1787933724 | 23.33° C | 54% | 1011.5 hPa | 0 mm | - | 10 W/m² | - |
| 1787933120 | 23.33° C | 54% | 1011.5 hPa | 0 mm | - | 9 W/m² | - |
| 1787932516 | 23.33° C | 54% | 1011.6 hPa | 0 mm | - | 13 W/m² | - |
| 1787931932 | 23.33° C | 54% | 1011.6 hPa | 0 mm | - | 13 W/m² | - |
| 1787931329 | 23.33° C | 53% | 1011.6 hPa | 0 mm | - | 7 W/m² | - |
| 1787930725 | 23.33° C | 53% | 1011.6 hPa | 0 mm | - | 7 W/m² | - |
| 1787930122 | 23.33° C | 53% | 1011.5 hPa | 0 mm | - | 8 W/m² | - |
| 1787929518 | 23.89° C | 54% | 1011.3 hPa | 0 mm | - | 6 W/m² | - |
| 1787928934 | 23.33° C | 56% | 1011 hPa | 0 mm | - | 8 W/m² | - |
| 1787928020 | 23.89° C | 57% | 1011.1 hPa | 0 mm | - | 15 W/m² | - |
| 1787927416 | 23.89° C | 57% | 1011.1 hPa | 0 mm | - | 19 W/m² | - |
| 1787926833 | 23.33° C | 59% | 1011 hPa | 0 mm | - | 13 W/m² | - |
| 1787926229 | 23.33° C | 58% | 1011.1 hPa | 0 mm | - | 14 W/m² | - |
| 1787925625 | 23.33° C | 59% | 1011.4 hPa | 0 mm | - | 15 W/m² | - |
| 1787925022 | 22.78° C | 65% | 1011.3 hPa | 0 mm | - | 17 W/m² | - |
| 1787924418 | 22.22° C | 66% | 1011.2 hPa | 0 mm | - | 35 W/m² | - |
| 1787923834 | 21.11° C | 73% | 1011.1 hPa | 0.25 mm | - | 26 W/m² | - |
| 1787923231 | 20.56° C | 79% | 1011.2 hPa | 1.52 mm | - | 31 W/m² | - |
| 1787922627 | 20° C | 82% | 1011.3 hPa | 1.52 mm | - | 32 W/m² | - |
| 1787922023 | 19.44° C | 89% | 1011.3 hPa | 1.78 mm | - | 15 W/m² | - |
* Rain latest hour (hover to see other rain measurements)
** Current wind speed in m/s (hover to see current wind gust speed)